Flag Weather past 2 weeks in Rainy River, Ontario, Canada

Now
-9 °F

Clear.


Feels Like: -9 °F
Forecast: -11 / 5 °F
Wind: No wind

Location: Baudette International Airport

Current Time: Nov 27, 2014 at 12:57:01 AM

Latest Report: Nov 26, 2014 at 11:53 PM


Visibility: 10 mi

Pressure: 30.57 "Hg

Humidity: 78%

Dew point: -14 °F

Location of Rainy RiverLocation

Historic Weather in Rainy River — Graph

°F

Rainy River temperature yesterday

Maximum temperature yesterday: 13 °F (at 12:53 AM)
Minimum temperature yesterday: -9 °F (at 7:53 PM)
Average temperature yesterday: -1 °F

Past Weeks' High & Low Weather Summary

 TemperatureHumidityPressure
High36 °F (Nov 22, 1:53 PM)100% (Nov 23, 9:53 AM)30.57 "Hg (Nov 23, 9:53 AM)
Low-9 °F (Nov 26, 7:53 PM)55% (Nov 14, 3:53 PM)29.39 "Hg (Nov 23, 4:59 PM)
Average15 °F78%29.97 "Hg
* Reported Nov 11 11:53 PM — Nov 26 11:53 PM, Rainy River, Weather by CustomWeather, © 2014

Note: Actual official high and low records may vary slightly from our data, if they occured in-between our weather recording intervals... More about our weather records

Advertising

Rainy River weather history for previous 24 hours

 ConditionsComfort  
Time TempWeatherWind HumidityBarometerVisibility
11:53 PM
Nov 26
-9 °FClear.No wind78%30.57 "Hg10 mi
10:53 PM-9 °FClear.3 mph78%30.57 "Hg10 mi
9:53 PM-6 °FClear.6 mph78%30.55 "Hg10 mi
8:53 PM-6 °FClear.7 mph78%30.55 "Hg10 mi
7:53 PM-9 °FPassing clouds.5 mph82%30.55 "Hg7 mi
6:53 PM-7 °FClear.No wind79%30.53 "Hg10 mi
5:53 PM-4 °FClear.5 mphN/A30.51 "Hg10 mi
4:53 PM-3 °FClear.6 mphN/A30.50 "Hg10 mi
3:53 PM0 °FSunny.9 mph65%30.48 "Hg10 mi
2:53 PM0 °FSunny.12 mph65%30.46 "Hg10 mi
1:53 PM0 °FSunny.13 mph65%30.44 "Hg10 mi
12:53 PM-1 °FSunny.15 mph68%30.43 "Hg10 mi
11:53 AM-1 °FSunny.14 mph71%30.42 "Hg10 mi
10:53 AM-1 °FSunny.14 mph75%30.42 "Hg10 mi
9:53 AM-1 °FSunny.12 mph79%30.41 "Hg10 mi
8:53 AM-1 °FOvercast.7 mph79%30.39 "Hg10 mi
7:53 AM-2 °FSunny.8 mph78%30.36 "Hg10 mi
6:53 AM0 °FClear.13 mph79%30.34 "Hg10 mi
5:53 AM2 °FClear.10 mph83%30.30 "Hg10 mi
4:53 AM4 °FClear.10 mph84%30.27 "Hg10 mi
3:53 AM7 °FPassing clouds.9 mph83%30.25 "Hg10 mi
2:53 AM9 °FPassing clouds.9 mph84%30.23 "Hg10 mi
1:53 AM12 °FLight snow. Ice fog.12 mph84%30.20 "Hg5 mi
12:53 AM13 °FLight snow. Overcast.9 mph81%30.18 "Hg5 mi
Weather by CustomWeather, © 2014

See weather overviewHow to use our weather pages